SCP
1 1 1 1 1 1 1 1 1 1 1 1 1 1 0 0 0 0 0 0 0 0 0 0 0 0 0 0 0 0 0 0 0 0 0 0 0 0 0 0 0 0 0
1 1 1 1 1 1 1 1 1 1 1 1 1 1 0 0 0 0 0 0 0 0 0 0 0 0 0 0 0 0 0 0 0 0 0 0 0 0 0 0 0 0 0
1 1 1 1 1 1 1 1 1 1 1 1 1 0 0 0 0 0 0 0 0 0 0 0 0 0 0 0 0 0 0 0 0 0 0 0 0 0 0 0 0 0 0
1 1 1 1 1 1 1 1 1 1 1 1 0 0 0 0 0 0 0 0 0 0 0 0 0 0 0 0 0 0 0 0 0 0 0 0 0 0 0 0 0 0 0
0 1 1 1 1 1 1 1 1 1 1 1 1 0 0 0 0 0 0 0 0 0 0 0 0 0 0 0 0 0 0 0 0 0 0 0 0 0 0 0 0 0 0
0 1 1 1 1 1 1 1 1 1 0 0 0 0 0 0 0 0 0 0 0 0 0 0 0 0 0 0 0 0 0 0 0 0 0 0 0 0 0 0 0 0 0
0 0 1 1 1 1 1 1 0 0 0 0 0 0 0 0 0 0 0 0 0 0 0 0 0 0 0 0 0 0 0 0 0 0 0 0 0 0 0 0 0 0 0
0 0 1 1 1 1 1 0 0 0 0 0 0 0 0 0 0 0 0 0 0 0 0 0 0 0 0 0 0 0 0 0 0 0 0 0 0 0 0 0 0 0 0
0 0 0 1 1 1 0 0 0 0 0 0 0 0 0 0 0 0 0 0 0 0 0 0 0 0 0 0 0 0 0 0 0 0 0 0 0 0 0 0 0 0 0
0 0 0 1 1 1 0 0 0 0 0 0 0 0 0 0 0 0 0 0 0 0 0 0 0 0 0 0 0 0 0 0 0 0 0 0 0 0 0 0 0 0 0
0 0 0 0 0 0 0 0 0 0 0 0 0 0 0 0 0 0 0 0 0 0 0 0 0 0 0 0 0 0 0 0 0 0 0 0 0 0 0 0 0 0 0
0 0 0 0 0 0 0 0 0 0 0 0 0 0 0 0 0 0 0 0 0 0 0 0 0 0 0 0 0 0 0 0 0 0 0 0 0 0 0 0 0 0 0
0 0 0 0 0 0 0 0 0 0 0 0 0 0 0 0 0 0 0 0 0 0 0 0 0 0 0 0 0 0 0 0 0 0 0 0 0 0 0 0 0 0 0
0 0 0 0 0 0 0 0 0 0 0 0 0 0 0 0 0 0 0 0 0 0 0 0 0 0 0 0 0 0 0 0 0 0 0 0 0 0 0 0 0 0 0
0 0 0 0 0 0 0 0 0 0 0 0 0 0 0 0 0 0 0 0 0 0 0 0 0 0 0 0 0 0 0 0 0 0 0 0 0 0 0 0 0 0 0
0 0 0 0 0 0 0 0 0 0 0 0 0 0 0 0 0 0 0 0 0 0 0 0 0 0 0 0 0 0 0 0 0 0 0 0 0 0 0 0 0 0 0
0 0 0 0 0 0 0 0 0 0 0 0 0 0 0 0 0 0 0 0 0 0 0 0 0 0 0 0 0 0 0 0 0 0 0 0 0 0 0 0 0 0 0
0 0 0 0 0 0 0 0 0 0 0 0 0 0 0 0 0 0 0 0 0 0 0 0 0 0 0 0 0 0 0 0 0 0 0 0 0 0 0 0 0 0 0
0 0 0 0 0 0 0 0 0 0 0 0 0 0 0 0 0 0 0 0 0 0 0 0 0 0 0 0 0 0 0 0 0 0 0 0 0 0 0 0 0 0 0
0 0 0 0 0 0 0 0 0 0 0 0 0 0 0 0 0 0 0 0 0 0 0 0 0 0 0 0 0 0 0 0 0 0 0 0 0 0 0 0 0 0 0
0 0 0 0 0 0 0 0 0 0 0 0 0 0 0 0 0 0 0 0 0 0 0 0 0 0 0 0 0 0 0 0 0 0 0 0 0 0 0 0 0 0 0
0 0 0 0 0 0 0 0 0 0 0 0 0 0 0 0 0 0 0 0 0 0 0 0 0 0 0 0 0 0 0 0 0 0 0 0 0 0 0 0 0 0 0
0 0 0 0 0 0 0 0 0 0 0 0 0 0 0 0 0 0 0 0 0 0 0 0 0 0 0 0 0 0 0 0 0 0 0 0 0 0 0 0 0 0 0
0 0 0 0 0 0 0 0 0 0 0 0 0 0 0 0 0 0 0 0 0 0 0 0 0 0 0 0 0 0 0 0 0 0 0 0 0 0 0 0 0 0 0
0 0 0 0 0 0 0 0 0 0 0 0 0 0 0 0 0 0 0 0 0 0 0 0 0 0 0 0 0 0 0 0 0 0 0 0 0 0 0 0 0 0 0
0 0 0 0 0 0 0 0 0 0 0 0 0 0 0 0 0 0 0 0 0 0 0 0 0 0 0 0 0 0 0 0 0 0 0 0 0 0 0 0 0 0 0
Wind_Speed
8 8 7 7 7 7 6 6 6 6 5 3 3 2 2 2 2 3 3 2 2 3 3 3 2 3 2 3 4 3 3 2 3 4 3 2 1 1 1 2 2 1 2
8 9 8 8 8 7 7 6 6 6 5 4 2 2 2 2 2 2 2 2 2 2 2 3 2 2 2 2 3 3 4 3 2 4 4 3 2 2 1 1 1 2 2
10 9 9 9 8 8 7 5 5 5 5 4 3 3 2 2 2 2 2 2 2 2 3 3 3 3 3 2 3 3 4 4 2 2 4 4 3 1 1 1 1 1 2
10 9 10 9 8 7 7 6 6 5 5 4 4 4 2 2 1 1 2 1 1 2 2 2 3 3 3 3 3 3 4 4 3 2 2 3 3 4 2 2 1 0 1
9 9 9 9 8 7 7 6 6 5 4 4 4 4 3 2 2 1 2 1 1 2 2 2 3 3 3 3 4 4 4 4 4 3 3 2 2 4 4 3 2 1 1
8 8 8 8 7 7 7 6 6 5 4 4 4 3 3 2 2 1 1 0 1 1 3 3 3 3 3 3 3 4 4 4 4 4 3 3 3 3 3 4 3 2 2
9 9 9 9 8 8 7 6 6 5 5 4 4 3 2 2 2 1 1 1 1 1 3 3 3 3 3 3 3 3 4 4 4 4 3 3 3 3 4 4 4 3 2
8 9 9 9 8 8 7 7 6 5 5 4 3 2 2 1 1 1 1 1 2 2 2 2 3 3 3 3 3 3 3 3 3 4 4 4 3 3 3 3 4 4 3
8 8 9 9 9 8 7 7 7 6 5 4 4 3 2 2 3 1 1 1 2 1 2 2 3 3 3 4 4 3 3 3 4 4 4 4 3 3 3 3 3 4 4
8 8 8 8 8 8 7 7 6 6 5 4 3 2 3 3 2 1 2 3 2 2 2 2 3 3 4 4 4 4 3 4 3 3 4 4 3 3 3 4 4 4 4
8 8 8 8 8 8 8 7 6 5 4 3 3 2 2 2 2 1 1 2 2 3 3 3 3 4 4 4 4 4 4 4 4 4 4 4 4 4 4 4 4 4 4
8 8 8 8 8 8 7 7 6 5 5 4 3 3 3 2 1 1 1 1 2 2 3 3 3 4 4 4 4 5 4 4 4 5 5 5 4 4 4 4 4 3 3
8 8 8 8 7 7 7 6 6 5 5 5 4 4 3 2 2 1 1 1 1 2 2 3 3 4 4 4 4 4 4 4 4 4 5 5 5 5 4 5 4 3 3
8 8 8 8 7 7 7 6 6 5 5 5 4 4 3 2 1 1 1 1 1 2 2 3 3 3 4 4 5 4 4 4 4 4 4 4 5 5 5 4 4 3 3
9 9 9 8 8 7 7 6 5 5 5 5 4 4 3 2 2 1 1 1 1 2 2 2 3 3 3 4 6 5 4 4 4 4 4 4 4 5 5 5 4 3 3
9 9 9 9 8 8 7 7 6 6 6 5 4 3 3 3 2 1 1 1 1 2 2 3 3 3 3 5 6 7 5 4 4 4 4 3 2 2 3 4 5 5 4
9 9 9 9 8 8 8 7 7 6 6 5 4 4 3 2 2 1 0 0 1 2 2 3 3 3 3 3 5 6 6 4 4 4 4 4 3 3 3 2 5 4 5
8 8 8 9 8 8 8 7 6 6 5 5 4 3 3 2 1 1 1 0 1 2 2 3 4 4 3 2 4 6 5 4 4 4 4 4 4 4 5 4 3 2 2
7 7 8 8 8 9 8 8 7 6 5 4 3 3 2 2 2 1 0 0 1 2 2 3 3 4 3 1 3 6 4 3 3 4 4 4 4 3 5 4 3 3 2
7 7 8 8 8 8 8 8 7 6 5 4 3 2 2 2 1 1 1 1 1 2 3 3 3 4 4 2 3 5 4 3 3 2 2 1 3 4 5 4 4 3 3
8 8 9 8 8 8 9 8 7 6 5 4 3 2 2 2 2 2 1 2 3 3 4 3 3 3 3 2 2 4 4 5 5 4 3 2 1 4 5 6 4 4 5
9 9 8 8 7 8 9 8 7 6 5 4 3 3 2 2 2 2 2 3 3 4 4 3 4 2 2 2 1 3 5 6 5 5 4 3 3 4 6 5 3 4 5
8 9 9 8 8 8 8 8 7 6 6 5 3 3 2 2 2 2 3 3 4 4 3 3 3 3 2 1 4 5 6 6 5 4 5 7 7 7 6 6 6 6 5
9 9 9 9 8 8 8 7 7 6 6 5 4 3 3 2 2 3 3 3 3 3 3 3 3 3 3 3 2 2 3 5 5 5 5 7 9 7 5 4 5 5 4
8 8 8 8 9 8 8 7 7 6 6 4 3 3 3 2 2 3 2 3 3 4 5 5 5 4 4 4 6 6 5 5 5 7 6 5 3 3 3 3 2 2 3
8 8 8 8 8 8 7 7 7 7 6 4 4 3 3 2 2 2 2 3 5 4 6 8 8 5 4 5 7 7 7 7 6 6 6 5 4 4 4 4 4 3 3
Wind_Direction
167 162 163 161 155 156 155 154 154 149 152 153 163 151 131 118 105 91 77 63 45 31 357 347 353 332 345 338 334 319 307 310 316 298 286 245 220 355 339 335 340 15 16
171 166 170 168 164 160 159 157 158 152 159 153 157 152 125 117 99 89 80 54 44 16 11 357 336 348 326 337 336 328 310 317 321 311 299 269 205 180 72 24 35 28 24
183 177 177 175 169 165 163 156 147 146 150 150 150 140 143 158 139 118 97 63 32 18 2 350 341 333 320 344 325 318 310 306 294 298 298 301 314 321 175 122 58 35 26
185 182 177 174 170 163 157 152 144 143 144 156 158 156 154 138 104 88 77 61 41 18 14 352 344 333 334 332 310 334 303 295 293 278 277 306 322 297 279 215 192 67 19
182 179 178 169 162 154 148 143 139 138 139 150 160 168 153 135 122 102 92 31 53 20 15 360 352 336 331 339 325 316 306 301 301 301 297 290 272 269 279 282 283 275 303
172 169 164 156 153 150 144 140 139 140 146 152 146 150 142 141 138 125 88 37 43 34 27 358 343 324 334 332 319 314 308 312 310 302 297 294 293 290 285 285 280 285 296
161 161 161 158 153 152 148 145 144 142 147 147 143 141 145 169 164 165 90 357 2 29 28 356 334 331 332 327 322 309 315 311 304 300 301 297 291 291 290 285 286 286 277
156 161 164 160 156 154 153 151 150 146 147 143 140 134 140 140 94 62 1 348 352 17 12 342 330 328 323 321 317 302 306 303 296 296 301 292 290 286 286 288 288 283 272
156 158 157 157 157 155 156 156 152 146 143 136 133 135 124 92 78 75 352 15 18 8 5 348 340 336 332 326 311 313 303 297 291 294 290 289 294 286 280 274 276 281 282
153 150 151 155 154 152 151 149 147 147 145 142 134 123 121 113 111 74 45 32 19 9 352 348 345 341 338 331 316 306 308 297 293 292 295 289 290 283 274 266 263 263 272
152 151 152 149 148 151 153 155 155 155 150 141 126 116 116 111 111 79 55 42 19 1 352 351 347 347 348 345 329 319 316 312 311 299 292 292 296 291 284 275 263 256 262
148 150 150 147 148 152 156 158 157 157 151 141 129 119 114 111 99 73 56 41 18 1 3 356 358 354 351 339 330 329 331 324 318 316 312 307 303 292 289 288 282 274 268
153 154 154 154 153 153 153 154 156 155 152 147 142 131 130 120 99 69 54 39 21 5 1 4 3 358 351 345 339 335 334 331 329 325 319 314 311 304 299 289 283 279 269
163 162 160 159 158 156 154 157 157 156 155 153 149 142 137 129 117 85 68 49 25 13 9 0 353 347 349 352 346 340 335 329 329 328 322 319 317 314 310 296 283 280 274
171 172 168 163 162 160 157 157 158 159 162 162 154 142 138 135 130 103 68 38 17 4 1 346 343 348 350 359 343 331 331 326 325 327 328 337 338 333 314 308 303 289 273
178 175 171 168 168 165 163 161 162 162 163 165 159 146 148 147 140 128 96 30 1 352 346 341 340 346 3 12 335 316 320 318 317 322 329 325 319 309 276 285 291 288 280
179 177 177 174 171 169 168 166 162 161 167 166 160 155 154 150 155 157 148 17 343 339 336 334 335 343 8 352 324 313 304 309 316 320 319 321 343 312 317 281 242 245 247
177 175 177 177 173 168 168 166 163 164 167 166 161 157 160 148 146 153 125 302 310 321 317 322 330 332 356 353 319 308 290 309 318 322 314 310 319 350 332 314 305 294 265
174 173 174 172 170 168 166 167 168 168 171 165 163 161 167 162 171 161 158 265 287 296 292 301 317 322 334 342 312 302 298 309 318 317 321 319 325 357 319 302 304 302 286
164 166 167 166 169 169 168 171 173 173 175 170 170 174 181 183 185 180 243 255 270 276 282 298 308 314 323 352 313 303 298 317 317 311 300 317 309 326 314 298 299 299 301
159 164 165 166 170 169 169 174 176 175 172 171 175 179 185 195 199 208 243 266 270 280 288 299 295 290 301 272 269 289 298 317 320 323 327 357 355 303 303 290 288 295 299
162 164 164 164 167 169 171 174 175 171 170 171 179 182 192 211 191 210 242 261 267 261 260 267 276 279 264 271 237 255 269 293 302 310 320 346 350 309 293 282 282 282 276
162 164 165 164 165 169 174 174 170 169 169 173 179 184 192 215 228 245 254 256 254 263 272 279 289 299 302 233 209 231 249 258 272 301 320 311 300 289 265 238 249 257 254
162 165 166 165 164 169 174 172 164 166 173 178 180 189 202 215 217 246 254 270 284 290 294 297 300 305 298 304 298 273 248 236 247 272 275 254 255 258 273 260 233 240 258
159 164 168 166 164 166 168 168 166 169 175 181 190 208 219 216 241 246 273 282 302 315 299 304 304 302 308 1 353 319 311 320 334 322 293 286 282 281 281 284 281 270 253
159 163 167 167 164 165 167 168 169 174 179 188 199 216 224 221 238 240 243 221 242 254 252 257 273 293 290 299 299 299 295 295 302 291 280 290 295 297 303 303 293 274 271